| time (UTC) | temp C | wind direction | speed KPH | gust KPH | rain 1hr cm | rain 24hr cm | rain mn cm | humidity % | barometer mb |
| 20260509150036 | 20 | 278 | 1.6 | 8.0 | 0.00 | 0.00 | 0.00 | 66 | 1009.0 |
| 20260509144534 | 19 | 0 | 0.0 | 9.7 | 0.00 | 0.00 | 0.00 | 70 | 1009.0 |
| 20260509143035 | 18 | 218 | 3.2 | 11.3 | 0.00 | 0.00 | 0.00 | 70 | 1008.8 |
| 20260509141534 | 19 | 196 | 0.0 | 8.0 | 0.00 | 0.00 | 0.00 | 73 | 1009.0 |
| 20260509140032 | 18 | 233 | 1.6 | 9.7 | 0.00 | 0.00 | 0.00 | 72 | 1008.9 |
| 20260509134530 | 18 | 82 | 4.8 | 8.0 | 0.00 | 0.00 | 0.00 | 70 | 1008.7 |
| 20260509133029 | 18 | 0 | 0.0 | 3.2 | 0.00 | 0.00 | 0.00 | 72 | 1008.9 |
| 20260509131545 | 17 | 99 | 3.2 | 6.4 | 0.00 | 0.00 | 0.00 | 72 | 1008.7 |
| 20260509130039 | 17 | 0 | 0.0 | 4.8 | 0.00 | 0.00 | 0.00 | 76 | 1008.4 |
| 20260509124530 | 16 | 336 | 1.6 | 8.0 | 0.00 | 0.00 | 0.00 | 78 | 1008.5 |
| 20260509123032 | 16 | 0 | 0.0 | 8.0 | 0.00 | 0.00 | 0.00 | 82 | 1008.2 |
| 20260509121532 | 15 | 18 | 3.2 | 8.0 | 0.00 | 0.00 | 0.00 | 83 | 1008.1 |
| 20260509120036 | 15 | 5 | 4.8 | 6.4 | 0.00 | 0.00 | 0.00 | 84 | 1008.2 |
| 20260509114538 | 14 | 0 | 0.0 | 1.6 | 0.00 | 0.00 | 0.00 | 88 | 1008.1 |
| 20260509113034 | 13 | 340 | 0.0 | 1.6 | 0.00 | 0.00 | 0.00 | 87 | 1008.1 |
| 20260509111529 | 13 | 0 | 0.0 | 4.8 | 0.00 | 0.00 | 0.00 | 88 | 1007.6 |
| 20260509110030 | 13 | 0 | 0.0 | 11.3 | 0.00 | 0.00 | 0.00 | 88 | 1007.4 |
| 20260509104528 | 13 | 42 | 4.8 | 9.7 | 0.00 | 0.00 | 0.00 | 88 | 1007.0 |
| 20260509103030 | 13 | 46 | 3.2 | 6.4 | 0.00 | 0.00 | 0.00 | 88 | 1007.0 |
| 20260509101543 | 13 | 60 | 1.6 | 4.8 | 0.00 | 0.00 | 0.00 | 88 | 1007.1 |
| 20260509100030 | 13 | 0 | 0.0 | 6.4 | 0.00 | 0.00 | 0.00 | 88 | 1007.3 |
| 20260509094530 | 14 | 327 | 3.2 | 8.0 | 0.00 | 0.00 | 0.00 | 87 | 1007.5 |
| 20260509093033 | 14 | 21 | 4.8 | 9.7 | 0.00 | 0.00 | 0.00 | 87 | 1007.3 |
| 20260509091529 | 14 | 75 | 4.8 | 8.0 | 0.00 | 0.00 | 0.00 | 86 | 1007.4 |
| 20260509090030 | 14 | 29 | 3.2 | 9.7 | 0.00 | 0.00 | 0.00 | 86 | 1007.2 |
| 20260509084530 | 14 | 27 | 4.8 | 8.0 | 0.00 | 0.00 | 0.00 | 85 | 1007.2 |
| 20260509083041 | 14 | 329 | 1.6 | 6.4 | 0.00 | 0.00 | 0.00 | 85 | 1007.6 |
| 20260509081533 | 15 | 349 | 1.6 | 4.8 | 0.00 | 0.00 | 0.00 | 84 | 1007.9 |
| 20260509080034 | 15 | 324 | 1.6 | 8.0 | 0.00 | 0.00 | 0.00 | 83 | 1008.0 |
| 20260509074531 | 15 | 309 | 3.2 | 9.7 | 0.00 | 0.00 | 0.00 | 81 | 1007.9 |
| 20260509073028 | 15 | 314 | 1.6 | 9.7 | 0.00 | 0.00 | 0.00 | 77 | 1007.9 |
| 20260509071532 | 15 | 316 | 1.6 | 6.4 | 0.00 | 0.00 | 0.00 | 75 | 1007.7 |
| 20260509070031 | 16 | 316 | 1.6 | 8.0 | 0.00 | 0.00 | 0.00 | 72 | 1007.8 |
| 20260509064533 | 16 | 0 | 0.0 | 4.8 | 0.00 | 0.00 | 0.00 | 71 | 1007.9 |
| 20260509063030 | 16 | 324 | 4.8 | 8.0 | 0.00 | 0.00 | 0.00 | 71 | 1008.1 |
| 20260509061532 | 16 | 198 | 1.6 | 6.4 | 0.00 | 0.00 | 0.00 | 68 | 1007.5 |
| 20260509060030 | 16 | 219 | 1.6 | 8.0 | 0.00 | 0.00 | 0.00 | 67 | 1007.5 |
| 20260509054530 | 16 | 175 | 4.8 | 11.3 | 0.00 | 0.00 | 0.00 | 67 | 1007.8 |
| 20260509053030 | 16 | 172 | 3.2 | 6.4 | 0.00 | 0.00 | 0.00 | 67 | 1007.9 |
| 20260509051536 | 16 | 0 | 0.0 | 0.0 | 0.00 | 0.00 | 0.00 | 67 | 1007.9 |
| 20260509050034 | 16 | 0 | 0.0 | 4.8 | 0.00 | 0.00 | 0.00 | 66 | 1007.9 |
| 20260509044533 | 16 | 125 | 0.0 | 6.4 | 0.00 | 0.00 | 0.00 | 65 | 1008.0 |
| 20260509043029 | 16 | 0 | 0.0 | 4.8 | 0.00 | 0.00 | 0.00 | 64 | 1008.1 |
| 20260509041530 | 17 | 165 | 3.2 | 6.4 | 0.00 | 0.00 | 0.00 | 63 | 1008.0 |
| 20260509040036 | 17 | 194 | 1.6 | 6.4 | 0.00 | 0.00 | 0.00 | 63 | 1008.1 |
| 20260509034544 | 17 | 189 | 4.8 | 9.7 | 0.00 | 0.00 | 0.00 | 61 | 1008.2 |
| 20260509033029 | 17 | 166 | 6.4 | 9.7 | 0.00 | 0.00 | 0.00 | 60 | 1008.2 |
| 20260509031534 | 17 | 158 | 6.4 | 9.7 | 0.00 | 0.00 | 0.00 | 60 | 1008.3 |
| 20260509030032 | 17 | 182 | 6.4 | 9.7 | 0.00 | 0.00 | 0.00 | 59 | 1008.4 |
| 20260509024535 | 18 | 162 | 6.4 | 9.7 | 0.00 | 0.00 | 0.00 | 57 | 1008.5 |
| 20260509023034 | 18 | 176 | 6.4 | 9.7 | 0.00 | 0.00 | 0.00 | 57 | 1008.5 |
| 20260509021530 | 18 | 155 | 6.4 | 12.9 | 0.00 | 0.00 | 0.00 | 55 | 1008.6 |
| 20260509020031 | 19 | 182 | 8.0 | 9.7 | 0.00 | 0.00 | 0.00 | 54 | 1008.6 |
| 20260509014531 | 19 | 158 | 3.2 | 8.0 | 0.00 | 0.00 | 0.00 | 53 | 1008.5 |
| 20260509013032 | 19 | 208 | 4.8 | 12.9 | 0.00 | 0.00 | 0.00 | 53 | 1008.4 |
| 20260509011530 | 19 | 211 | 6.4 | 14.5 | 0.00 | 0.00 | 0.00 | 53 | 1008.5 |
| 20260509010036 | 19 | 200 | 4.8 | 8.0 | 0.00 | 0.00 | 0.00 | 53 | 1008.5 |
| 20260509004535 | 20 | 218 | 6.4 | 11.3 | 0.00 | 0.00 | 0.00 | 53 | 1008.6 |
| 20260509003031 | 20 | 222 | 1.6 | 8.0 | 0.00 | 0.00 | 0.00 | 52 | 1008.9 |
| 20260509001535 | 20 | 215 | 3.2 | 8.0 | 0.00 | 0.00 | 0.00 | 52 | 1008.9 |
| 20260509000032 | 20 | 213 | 0.0 | 8.0 | 0.00 | 0.00 | 0.00 | 50 | 1009.1 |
| 20260508234530 | 21 | 219 | 3.2 | 11.3 | 0.00 | 0.00 | 0.00 | 49 | 1009.1 |
| 20260508233029 | 21 | 224 | 1.6 | 14.5 | 0.00 | 0.00 | 0.00 | 48 | 1009.3 |
| 20260508231530 | 22 | 207 | 4.8 | 16.1 | 0.00 | 0.00 | 0.00 | 46 | 1009.2 |
| 20260508230032 | 22 | 185 | 9.7 | 24.1 | 0.00 | 0.00 | 0.00 | 45 | 1009.3 |
| 20260508224536 | 22 | 233 | 11.3 | 27.4 | 0.00 | 0.00 | 0.00 | 45 | 1009.3 |
| 20260508223044 | 22 | 215 | 9.7 | 24.1 | 0.00 | 0.00 | 0.00 | 44 | 1009.2 |
| 20260508221531 | 22 | 214 | 8.0 | 25.7 | 0.00 | 0.00 | 0.00 | 44 | 1009.1 |
| 20260508220031 | 22 | 187 | 9.7 | 25.7 | 0.00 | 0.00 | 0.00 | 45 | 1009.1 |
| 20260508214550 | 22 | 225 | 12.9 | 24.1 | 0.00 | 0.00 | 0.00 | 44 | 1009.3 |
| 20260508213029 | 22 | 177 | 12.9 | 25.7 | 0.00 | 0.00 | 0.00 | 44 | 1009.2 |
| 20260508211533 | 22 | 207 | 8.0 | 20.9 | 0.00 | 0.00 | 0.00 | 46 | 1009.4 |
| 20260508210033 | 22 | 208 | 9.7 | 24.1 | 0.00 | 0.00 | 0.00 | 45 | 1009.6 |
| 20260508204534 | 22 | 180 | 12.9 | 33.8 | 0.00 | 0.00 | 0.00 | 46 | 1009.8 |
| 20260508203030 | 22 | 206 | 16.1 | 33.8 | 0.00 | 0.00 | 0.00 | 46 | 1010.1 |
| 20260508201532 | 22 | 209 | 16.1 | 24.1 | 0.00 | 0.00 | 0.00 | 45 | 1010.2 |
| 20260508200040 | 22 | 207 | 14.5 | 24.1 | 0.00 | 0.00 | 0.00 | 46 | 1010.4 |
| 20260508194530 | 22 | 220 | 11.3 | 27.4 | 0.00 | 0.00 | 0.00 | 48 | 1010.6 |
| 20260508193042 | 22 | 197 | 14.5 | 27.4 | 0.00 | 0.00 | 0.00 | 48 | 1011.0 |
| 20260508191536 | 22 | 193 | 9.7 | 25.7 | 0.00 | 0.00 | 0.00 | 47 | 1011.2 |
| 20260508190047 | 21 | 221 | 9.7 | 29.0 | 0.00 | 0.00 | 0.00 | 46 | 1011.5 |
| 20260508184535 | 21 | 184 | 11.3 | 27.4 | 0.00 | 0.00 | 0.00 | 49 | 1011.7 |
| 20260508183039 | 21 | 212 | 12.9 | 32.2 | 0.00 | 0.00 | 0.00 | 47 | 1012.0 |
| 20260508181529 | 21 | 211 | 9.7 | 27.4 | 0.00 | 0.00 | 0.00 | 47 | 1011.9 |
| 20260508180034 | 21 | 270 | 9.7 | 25.7 | 0.00 | 0.00 | 0.00 | 47 | 1012.0 |
| 20260508174542 | 21 | 204 | 11.3 | 27.4 | 0.00 | 0.00 | 0.00 | 46 | 1012.4 |
| 20260508173030 | 20 | 193 | 16.1 | 27.4 | 0.00 | 0.00 | 0.00 | 47 | 1012.5 |
| 20260508171533 | 20 | 182 | 16.1 | 30.6 | 0.00 | 0.00 | 0.00 | 48 | 1012.7 |
| 20260508170035 | 20 | 188 | 12.9 | 25.7 | 0.00 | 0.00 | 0.00 | 50 | 1012.8 |
| 20260508164537 | 20 | 197 | 11.3 | 22.5 | 0.00 | 0.00 | 0.00 | 53 | 1012.9 |
| 20260508163032 | 20 | 191 | 11.3 | 22.5 | 0.00 | 0.00 | 0.00 | 52 | 1013.2 |
| 20260508161530 | 19 | 265 | 11.3 | 29.0 | 0.00 | 0.00 | 0.00 | 51 | 1013.5 |
| 20260508160034 | 19 | 226 | 8.0 | 24.1 | 0.00 | 0.00 | 0.00 | 56 | 1014.0 |
| 20260508154530 | 18 | 234 | 9.7 | 22.5 | 0.00 | 0.00 | 0.00 | 55 | 1014.4 |
| 20260508153042 | 18 | 166 | 11.3 | 22.5 | 0.00 | 0.00 | 0.00 | 56 | 1014.5 |
| 20260508151529 | 18 | 204 | 9.7 | 25.7 | 0.00 | 0.00 | 0.00 | 58 | 1014.5 |